When you browse on this site, cookies collect data to enhance your experience and personalize the content and advertising you see.
Visit our Privacy Policy to learn more. By continuing to use the site, you agree to this use of cookies and data.
  • In Latvia
  • List of Countries
  • For 7 days
  • Water Temperature
  • Weather Map
  • Weather Widgets
  • user-avatar
    Login

    Hourly Weather Newcastle

    Today, 7 December, Saturday

    Time Temperature Precipitation Wind Pressure Humidity
    00:00 +19°C° 0 mm 3 mps 757 mmHg 86%
    01:00 +18°C° 0 mm 4 mps 757 mmHg 95%
    02:00 +19°C° 0 mm 3 mps 757 mmHg 93%
    03:00 +19°C° 0 mm 3 mps 757 mmHg 92%
    04:00 +19°C° 0 mm 2 mps 757 mmHg 92%
    05:00 +20°C° 0.1 mm 2 mps 758 mmHg 86%
    06:00 +21°C° 0.1 mm 2 mps 758 mmHg 80%
    07:00 +23°C° 0.1 mm 1 mps 759 mmHg 74%
    08:00 +26°C° 0 mm 1 mps 759 mmHg 63%
    09:00 +28°C° 0 mm 1 mps 759 mmHg 51%
    10:00 +31°C° 0 mm 2 mps 758 mmHg 41%
    11:00 +31°C° 0 mm 2 mps 758 mmHg 40%
    12:00 +31°C° 0 mm 3 mps 757 mmHg 39%
    13:00 +32°C° 0 mm 4 mps 757 mmHg 37%
    14:00 +30°C° 0 mm 4 mps 757 mmHg 42%
    15:00 +28°C° 0 mm 5 mps 756 mmHg 47%
    16:00 +27°C° 0 mm 4 mps 756 mmHg 51%
    17:00 +25°C° 0 mm 4 mps 757 mmHg 59%
    18:00 +24°C° 0 mm 3 mps 758 mmHg 67%
    19:00 +21°C° 0 mm 3 mps 759 mmHg 75%
    20:00 +20°C° 0 mm 3 mps 760 mmHg 82%
    21:00 +19°C° 0 mm 3 mps 760 mmHg 88%
    22:00 +19°C° 0 mm 2 mps 761 mmHg 95%
    23:00 +19°C° 0 mm 2 mps 761 mmHg 95%

    Tomorrow, 8 December, Sunday

    Time Temperature Precipitation Wind Pressure Humidity
    00:00 +19°C° 0 mm 3 mps 761 mmHg 94%
    01:00 +19°C° 0 mm 3 mps 762 mmHg 93%
    02:00 +19°C° 0.1 mm 3 mps 762 mmHg 93%
    03:00 +19°C° 0.1 mm 3 mps 762 mmHg 92%
    04:00 +19°C° 0.1 mm 3 mps 762 mmHg 91%
    05:00 +20°C° 0.1 mm 3 mps 762 mmHg 87%
    06:00 +21°C° 0.1 mm 4 mps 763 mmHg 82%
    07:00 +21°C° 0.1 mm 4 mps 763 mmHg 78%
    08:00 +22°C° 0 mm 4 mps 763 mmHg 72%
    09:00 +23°C° 0 mm 4 mps 763 mmHg 65%
    10:00 +25°C° 0 mm 5 mps 763 mmHg 59%
    11:00 +26°C° 0 mm 5 mps 763 mmHg 56%
    12:00 +27°C° 0 mm 5 mps 762 mmHg 53%
    13:00 +28°C° 0 mm 6 mps 762 mmHg 50%
    14:00 +27°C° 0 mm 6 mps 762 mmHg 53%
    15:00 +27°C° 0 mm 6 mps 762 mmHg 56%
    16:00 +26°C° 0 mm 7 mps 762 mmHg 58%
    17:00 +23°C° 0 mm 6 mps 763 mmHg 64%
    18:00 +22°C° 0 mm 6 mps 764 mmHg 69%
    19:00 +21°C° 0 mm 6 mps 764 mmHg 75%
    20:00 +20°C° 0 mm 6 mps 765 mmHg 78%
    21:00 +20°C° 0 mm 5 mps 765 mmHg 80%
    22:00 +19°C° 0 mm 5 mps 765 mmHg 83%
    23:00 +19°C° 0 mm 5 mps 765 mmHg 85%

    Day after tomorrow, 9 December, Monday

    Time Temperature Precipitation Wind Pressure Humidity
    00:00 +19°C° 0 mm 5 mps 765 mmHg 87%
    01:00 +18°C° 0 mm 4 mps 764 mmHg 89%
    02:00 +18°C° 0 mm 4 mps 764 mmHg 91%
    03:00 +18°C° 0 mm 4 mps 764 mmHg 92%
    04:00 +18°C° 0 mm 4 mps 765 mmHg 94%
    05:00 +19°C° 0 mm 4 mps 765 mmHg 87%
    06:00 +21°C° 0 mm 4 mps 765 mmHg 79%
    07:00 +22°C° 0 mm 4 mps 765 mmHg 72%
    08:00 +26°C° 0 mm 4 mps 765 mmHg 64%
    09:00 +28°C° 0 mm 5 mps 765 mmHg 55%
    10:00 +30°C° 0 mm 5 mps 764 mmHg 47%
    11:00 +33°C° 0 mm 6 mps 764 mmHg 43%
    12:00 +34°C° 0 mm 6 mps 763 mmHg 40%
    13:00 +35°C° 0 mm 7 mps 762 mmHg 36%
    14:00 +35°C° 0 mm 7 mps 762 mmHg 39%
    15:00 +34°C° 0 mm 8 mps 761 mmHg 41%
    16:00 +33°C° 0 mm 8 mps 761 mmHg 44%
    17:00 +31°C° 0 mm 8 mps 761 mmHg 52%
    18:00 +27°C° 0 mm 8 mps 761 mmHg 59%
    19:00 +24°C° 0 mm 8 mps 761 mmHg 67%
    20:00 +23°C° 0 mm 7 mps 761 mmHg 71%
    21:00 +22°C° 0 mm 6 mps 761 mmHg 74%
    22:00 +21°C° 0 mm 5 mps 761 mmHg 77%
    23:00 +20°C° 0 mm 4 mps 761 mmHg 82%

    10 December, Tuesday

    Time Temperature Precipitation Wind Pressure Humidity
    00:00 +20°C° 0 mm 3 mps 760 mmHg 87%
    01:00 +19°C° 0 mm 2 mps 760 mmHg 92%
    02:00 +18°C° 0 mm 2 mps 759 mmHg 92%
    03:00 +18°C° 0 mm 2 mps 759 mmHg 93%
    04:00 +18°C° 0 mm 2 mps 759 mmHg 94%
    05:00 +21°C° 0 mm 2 mps 759 mmHg 82%
    06:00 +24°C° 0 mm 2 mps 759 mmHg 71%
    07:00 +27°C° 0 mm 2 mps 759 mmHg 59%
    08:00 +30°C° 0 mm 3 mps 759 mmHg 48%
    09:00 +35°C° 0 mm 3 mps 759 mmHg 38%
    10:00 +40°C° 0 mm 4 mps 759 mmHg 27%
    11:00 +41°C° 0 mm 4 mps 758 mmHg 25%
    12:00 +42°C° 0 mm 5 mps 757 mmHg 22%
    13:00 +43°C° 0 mm 5 mps 756 mmHg 19%
    14:00 +44°C° 0 mm 6 mps 756 mmHg 20%
    15:00 +42°C° 0 mm 6 mps 756 mmHg 21%
    16:00 +42°C° 0 mm 6 mps 755 mmHg 22%
    17:00 +39°C° 0 mm 6 mps 756 mmHg 28%
    18:00 +36°C° 0 mm 5 mps 756 mmHg 35%
    19:00 +33°C° 0 mm 4 mps 757 mmHg 41%
    20:00 +29°C° 0 mm 5 mps 758 mmHg 56%
    21:00 +26°C° 0 mm 7 mps 758 mmHg 71%
    22:00 +22°C° 0 mm 8 mps 759 mmHg 86%
    23:00 +22°C° 0 mm 7 mps 759 mmHg 84%

    11 December, Wednesday

    Time Temperature Precipitation Wind Pressure Humidity
    00:00 +21°C° 0 mm 7 mps 759 mmHg 83%
    01:00 +21°C° 0 mm 6 mps 759 mmHg 82%
    02:00 +20°C° 0 mm 6 mps 759 mmHg 81%
    03:00 +20°C° 0 mm 5 mps 759 mmHg 80%
    04:00 +20°C° 0 mm 4 mps 759 mmHg 80%
    05:00 +20°C° 0.1 mm 4 mps 759 mmHg 79%
    06:00 +21°C° 0.1 mm 4 mps 759 mmHg 78%
    07:00 +21°C° 0.1 mm 4 mps 759 mmHg 77%
    08:00 +23°C° 0 mm 4 mps 759 mmHg 71%
    09:00 +25°C° 0 mm 4 mps 759 mmHg 66%
    10:00 +26°C° 0 mm 4 mps 759 mmHg 60%
    11:00 +27°C° 0 mm 4 mps 758 mmHg 60%
    12:00 +27°C° 0 mm 4 mps 757 mmHg 59%
    13:00 +27°C° 0 mm 5 mps 757 mmHg 58%
    14:00 +27°C° 0 mm 4 mps 756 mmHg 60%
    15:00 +26°C° 0 mm 4 mps 756 mmHg 63%
    16:00 +26°C° 0 mm 4 mps 756 mmHg 65%
    17:00 +25°C° 0 mm 4 mps 756 mmHg 72%
    18:00 +23°C° 0 mm 4 mps 757 mmHg 80%
    19:00 +21°C° 0 mm 4 mps 757 mmHg 87%
    20:00 +21°C° 0 mm 4 mps 757 mmHg 89%
    21:00 +20°C° 0 mm 4 mps 757 mmHg 92%
    22:00 +20°C° 0 mm 4 mps 757 mmHg 94%
    23:00 +19°C° 0 mm 3 mps 757 mmHg 95%

    12 December, Thursday

    Time Temperature Precipitation Wind Pressure Humidity
    00:00 +19°C° 0 mm 3 mps 757 mmHg 96%
    01:00 +18°C° 0 mm 2 mps 757 mmHg 97%
    02:00 +18°C° 0 mm 2 mps 757 mmHg 94%
    03:00 +19°C° 0 mm 2 mps 757 mmHg 92%
    04:00 +20°C° 0 mm 1 mps 757 mmHg 90%
    05:00 +21°C° 0 mm 1 mps 757 mmHg 86%
    06:00 +22°C° 0 mm 1 mps 757 mmHg 81%
    07:00 +22°C° 0 mm 1 mps 758 mmHg 76%
    08:00 +24°C° 0 mm 2 mps 757 mmHg 69%
    09:00 +26°C° 0 mm 2 mps 757 mmHg 62%
    10:00 +28°C° 0 mm 3 mps 757 mmHg 55%
    11:00 +28°C° 0 mm 3 mps 757 mmHg 55%
    12:00 +28°C° 0 mm 4 mps 756 mmHg 55%
    13:00 +28°C° 0 mm 4 mps 755 mmHg 55%
    14:00 +28°C° 0 mm 5 mps 755 mmHg 58%
    15:00 +27°C° 0 mm 5 mps 755 mmHg 61%
    16:00 +26°C° 0 mm 5 mps 754 mmHg 64%
    17:00 +25°C° 0 mm 5 mps 755 mmHg 71%
    18:00 +23°C° 0 mm 5 mps 755 mmHg 78%
    19:00 +22°C° 0 mm 5 mps 756 mmHg 85%
    20:00 +21°C° 0 mm 5 mps 756 mmHg 85%
    21:00 +21°C° 0 mm 6 mps 757 mmHg 86%
    22:00 +21°C° 0 mm 6 mps 758 mmHg 86%
    23:00 +20°C° 0.2 mm 6 mps 758 mmHg 88%
    Show more